Location: Bazugues
(43.4465°N, 0.3432°E)
Time: 19:47:10
(UTC+00:00)

Cosmos 1833 Rocket - Pass Details

Date: 12 January 2026
Orbit: 832 x 838 km, 71.0° (Epoch: 13 February)

Event Time Altitude Azimuth Distance (km) Brightness Sun altitude
Rises 19:01:11 0° 176° (S) 3,373 5.9 -24.2°
Reaches altitude 10° 19:03:49 10° 167° (SSE) 2,444 5.0 -24.7°
Enters shadow 19:05:16 17° 159° (SSE) 1,977 4.5 -25.0°
